Flag for Canada

Past Weather in Saskatoon, Saskatchewan, Canada — Yesterday and Last 2 Weeks

Now
59 °F

Passing clouds.


Feels Like: 57 °F
Forecast: 65 / 55 °F
Wind: 10 mph from Southeast

Location: Saskatoon Weather Station
Current Time: Sep 20, 2020 at 3:16:11 am
Latest Report: Sep 20, 2020 at 2:00 am
Visibility: 12 mi
Pressure29.65 "Hg
Humidity: 63%
Dew Point: 46 °F
Location of SaskatoonLocation

Past Weather in Saskatoon — Graph

°F

Saskatoon Temperature Yesterday

Maximum temperature yesterday: 79 °F (at 5:00 pm)
Minimum temperature yesterday: 46 °F (at 6:00 am)
Average temperature yesterday: 64 °F

High & Low Weather Summary for the Past Weeks

 TemperatureHumidityPressure
High86 °F (Sep 11, 3:00 pm)100% (Sep 6, 12:31 am)30.59 "Hg (Sep 6, 12:31 am)
Low21 °F (Sep 8, 3:00 am)19% (Sep 11, 3:00 pm)29.65 "Hg (Sep 20, 2:00 am)
Average52 °F65%30.14 "Hg
* Reported Sep 5 2:00 am — Sep 20 2:00 am, Saskatoon. Weather by CustomWeather, © 2020

Note: Actual official high and low records may vary slightly from our data, if they occured in-between our weather recording intervals... More about our weather records

Saskatoon Weather History for the Previous 24 Hours

Scroll right to see more
 ConditionsComfort  
Time TempWeatherWind HumidityBarometerVisibility
2:00 am
Sun, Sep 20
59 °FPassing clouds.10 mph63%29.65 "Hg12 mi
1:00 am59 °FPassing clouds.9 mph63%29.67 "Hg12 mi
12:00 am61 °FOvercast.12 mph59%29.69 "Hg15 mi
11:00 pm
Sat, Sep 19
61 °FOvercast.9 mph59%29.71 "Hg12 mi
10:00 pm64 °FPassing clouds.10 mph52%29.72 "Hg12 mi
9:00 pm68 °FOvercast.13 mph46%29.72 "Hg12 mi
8:00 pm70 °FPassing clouds.14 mph43%29.72 "Hg12 mi
7:00 pm73 °FPartly sunny.17 mph41%29.72 "Hg12 mi
6:00 pm75 °FHigh level clouds.16 mph41%29.72 "Hg12 mi
5:00 pm79 °FPartly sunny.16 mph39%29.73 "Hg10 mi
4:00 pm77 °FHigh level clouds.14 mph39%29.74 "Hg10 mi
3:00 pm77 °FPartly sunny.16 mph36%29.75 "Hg8 mi
2:00 pm77 °FPartly sunny.16 mph36%29.76 "Hg8 mi
1:00 pm77 °FSunny.21 mph32%29.78 "Hg10 mi
12:00 pm75 °FSunny.16 mph36%29.80 "Hg10 mi
11:00 am68 °FSunny.13 mph49%29.81 "Hg12 mi
10:00 am63 °FSunny.9 mph56%29.82 "Hg12 mi
9:00 am55 °FSunny.9 mph63%29.83 "Hg15 mi
8:00 am52 °FPartly sunny.7 mph67%29.84 "Hg15 mi
7:00 am50 °FScattered clouds.8 mph71%29.85 "Hg15 mi
6:00 am46 °FPassing clouds.3 mph76%29.85 "Hg15 mi
5:00 am54 °FPassing clouds.5 mph63%29.86 "Hg15 mi
4:00 am55 °FClear.7 mph55%29.87 "Hg15 mi
3:00 am57 °FClear.12 mph51%29.89 "Hg15 mi
Weather by CustomWeather, © 2020

See weather overview